Regional Weather Roundup
Issued by NWS

Home | Current Version | Previous Version | Text Only | Print | Product List | Glossary Off
Versions: 1 2 3 4 5 6 7 8 9 10 11 12 13 14 15 16 17 18 19 20 21 22 23 24 25 26 27 28 29 30 31 32 33 34 35 36 37 38 39 40 41 42 43 44 45 46 47 48 49 50

466
ASUS43 KLMK 240102
RWRKY
KENTUCKY REGIONAL WEATHER ROUNDUP
NATIONAL WEATHER SERVICE LOUISVILLE KY
900 PM EDT SUN APR 23 2017

NOTE "FAIR" INDICATES FEW OR NO CLOUDS BELOW 12,000 FEET
WITH NO SIGNIFICANT WEATHER AND/OR OBSTRUCTIONS TO VISIBILITY.

KYZ001>023-026-027-061>063-070>075-240200-
WESTERN AND SOUTH CENTRAL KENTUCKY

CITY           SKY/WX    TMP DP  RH WIND       PRES   REMARKS
PADUCAH        CLEAR     61  38  42 N7        29.91S
HENDERSON      PTCLDY    60  43  53 SE6       29.94R
OWENSBORO      LGT RAIN  60  43  53 E12       29.94R
HOPKINSVILLE   RAIN      53  51  92 N16       29.91R
BOWLING GREEN  CLOUDY    53  50  89 N6        29.89S
GLASGOW        NOT AVBL
$$

KYZ024-025-028>034-038-045-046-053-240200-
NORTH CENTRAL KENTUCKY

CITY           SKY/WX    TMP DP  RH WIND       PRES   REMARKS
LOUISVILLE/SDF CLOUDY    62  39  42 N5        29.92R
LOUISVILLE/LOU CLOUDY    61  38  42 N6        29.93R
FORT KNOX      CLOUDY    58  41  53 N7        29.92R
$$

KYZ035>037-039>044-047>052-055>060-089>105-240200-
NORTHEAST KENTUCKY

CITY           SKY/WX    TMP DP  RH WIND       PRES   REMARKS
LEXINGTON      CLOUDY    56  45  66 NE17      29.91R
COVINGTON      CLOUDY    61  35  37 NE9       29.96R
FRANKFORT      CLOUDY    59  44  57 NE15G26   29.88F
$$

KYZ054-064>069-076>088-106>120-240200-
SOUTHEAST KENTUCKY

CITY           SKY/WX    TMP DP  RH WIND       PRES   REMARKS
JACKSON        CLOUDY    51  50  96 VRB3      29.93R
LONDON         CLOUDY    54  49  83 E10G21    29.82S
SOMERSET       NOT AVBL
MIDDLESBORO    CLOUDY    54  51  89 SE3G18    29.86S
MONTICELLO     CLOUDY    54  52  93 N12G23    29.86S
$$





USA.gov is the U.S. government's official web portal to all federal, state and local government web resources and services.